Location: La Sériège
(44.1833°N, 6.3833°E)
Time: 23:05:04
(UTC+00:00)

Daily predictions for brighter satellites

Satellite Brightness Start Highest point End
(mag) Time Altitude Azimuth Time Altitude Azimuth Time Altitude Azimuth
Atlas Centaur 2 4.4 17:23:26 10° WSW 17:30:05 28° S 17:36:12 10° SE
CZ-4 R/B 4.4 17:27:45 10° SSE 17:31:39 60° ENE 17:35:35 10° N
Cosmos 1674 Rocket 3.6 17:28:11 10° S 17:32:35 86° W 17:37:01 10° N
SPOT 1/Viking Rocket 3.5 17:27:40 10° SSE 17:32:45 76° ENE 17:37:54 10° N
USA 306 3.7 17:34:45 10° WNW 17:37:12 26° SW 17:38:52 10° SSE
CARTOSAT-1 4.3 17:33:36 10° SE 17:37:13 29° ENE 17:40:52 10° N
ATLAS 5 CENTAUR R/B 4.1 17:34:18 10° WNW 17:38:20 30° WSW 17:43:08 10° S
USA 267 3.7 17:32:29 10° NE 17:38:55 61° NNW 17:45:20 10° WSW
Radarsat Rocket 4.2 17:34:50 10° SE 17:40:26 49° ENE 17:46:29 10° N
CZ-2D R/B 3.9 17:41:34 10° S 17:44:31 47° W 17:47:30 10° NNW
Cosmos 2297 Rocket 2.2 17:39:35 10° SSW 17:45:13 75° ESE 17:50:54 10° NNE
Cosmos 1447 Rocket 4.4 17:40:35 10° S 17:46:37 68° E 17:52:44 10° NNE
Cosmos 2058 4.5 17:52:31 10° ESE 17:54:19 14° E 17:54:19 14° E
SeaSat 1 2.5 17:51:09 10° SSE 17:56:01 83° WSW 18:00:57 10° NNW
NOSS 0 Rocket 4.3 17:50:26 10° NNW 17:56:39 70° WSW 18:02:49 10° SSE
SJ-6B 3.8 17:54:34 10° ESE 17:57:09 20° ENE 17:59:45 10° NNE
Tiangong -1.3 17:55:05 10° WSW 17:58:05 40° SSE 18:00:16 16° ESE
PSLV R/B 3.5 17:57:53 10° SSE 18:01:53 53° ENE 18:05:53 10° N
Cosmos 1125 Rocket 3.9 17:59:57 10° NNW 18:05:07 68° WSW 18:10:16 10° S
Cosmos 2228 3.5 18:01:37 10° N 18:05:28 34° ENE 18:09:18 10° SE
Cosmos 1570 Rocket 4.0 18:00:40 10° SSW 18:05:56 84° ESE 18:11:14 10° NNE
COSMO-SKYMED 1 2.3 18:02:09 10° NNE 18:06:17 77° ESE 18:10:22 10° S
Cosmos 2285 Rocket 4.1 17:59:55 10° NNW 18:06:22 85° WSW 18:12:45 10° SSE
CZ-2D R/B 3.2 18:02:49 10° SSE 18:06:43 84° ENE 18:10:45 10° NNW
Cosmos 2344 4.0 18:00:21 10° S 18:07:51 40° ESE 18:14:27 10° NE
YAOGAN 1 2.7 18:06:38 10° S 18:10:53 75° W 18:15:08 10° NNW
Cosmos 2263 Rocket 2.9 18:07:05 10° SSE 18:12:00 31° ESE 18:16:41 11° NE
Cosmos 1513 Rocket 4.5 18:06:53 10° N 18:13:12 70° E 18:19:33 10° SSE
Cosmos 1455 Rocket 2.9 18:08:56 10° N 18:13:15 77° E 18:17:32 10° SSE
Cosmos 1975 Rocket 3.2 18:09:05 10° SSE 18:13:15 47° E 18:17:24 10° NNE
USA 234 3.7 18:08:38 10° SE 18:15:07 65° SW 18:21:39 10° NW
Cosmos 1980 3.9 18:11:10 10° NNW 18:16:49 76° WSW 18:22:26 10° SSE
Cosmos 2034 Rocket 4.5 18:11:31 10° N 18:17:07 35° ENE 18:22:44 10° SE
Cosmos 1072 Rocket 4.5 18:12:03 10° N 18:18:11 58° ENE 18:24:13 10° SSE
SJ-7 4.3 18:18:15 10° S 18:21:56 75° WSW 18:25:37 10° NNW
Cosmos 2237 Rocket 2.4 18:16:19 10° NNW 18:22:00 75° WSW 18:27:40 10° SSE
Cosmos 773 Rocket 4.0 18:17:07 10° SSW 18:22:23 89° ESE 18:27:41 10° NNE
Spot 4 Rocket 4.1 18:17:27 10° SSE 18:22:33 79° WSW 18:27:40 10° NNW
NOAA 6 4.0 18:18:29 10° SSE 18:23:38 86° ENE 18:28:49 10° NNW
DNEPR-1 R/B 4.1 18:21:15 10° NNW 18:26:08 58° NE 18:30:45 16° SE
Cosmos 2208 Rocket 4.0 18:23:06 10° SSW 18:28:20 87° WNW 18:33:41 10° NNE
Meteor 1-27 4.4 18:25:44 10° NNW 18:31:33 81° W 18:37:23 10° S
Meteor 2-17 Rocket 4.4 18:28:30 10° S 18:34:34 87° E 18:40:39 10° N
CRYOSAT 2 4.3 18:30:18 10° N 18:35:13 87° W 18:40:05 10° S
Cosmos 1346 Rocket 2.4 18:33:44 10° S 18:37:18 63° E 18:40:09 15° NNE
Cosmos 44 Rocket 3.8 18:32:52 10° SW 18:37:43 61° NW 18:42:35 11° NNE
Cosmos 1602 3.5 18:38:17 10° SSW 18:41:00 56° W 18:43:14 14° N
CZ-4C R/B 4.0 18:39:36 10° WNW 18:43:06 20° NNW 18:47:16 10° NNE
Cosmos 1464 Rocket 3.9 18:37:56 10° N 18:44:19 83° E 18:50:36 10° S
Cosmos 2227 Rocket 2.2 18:39:00 10° SSW 18:44:38 87° WNW 18:50:20 10° NNE
SL-16 R/B 2.3 18:43:08 10° NNW 18:48:41 53° ENE 18:50:50 34° ESE
Helios 1A Rocket 2.5 18:49:54 58° S 18:49:54 58° S 18:52:36 10° S
NOSS 3-4 (A) 4.0 18:45:42 10° NW 18:52:36 76° SW 19:00:43 10° SSE
NOSS 3-4 (C) 4.0 18:45:58 10° NW 18:52:54 77° WSW 19:01:01 10° SSE
Cosmos 2150 Rocket 4.2 18:50:53 10° NNW 18:56:00 70° WSW 19:01:05 10° S
CZ-4 R/B 3.6 19:02:51 13° N 19:02:51 13° N 19:03:18 10° N
Cosmos 2298 Rocket 4.3 18:54:48 10° NNW 19:00:04 69° WSW 19:05:19 10° S
MINOTAUR IV R/B 4.4 18:56:08 10° S 19:00:23 62° ESE 19:00:23 62° ESE
Lacrosse 5 rocket 3.6 19:00:22 10° NNW 19:01:16 11° N 19:01:16 11° N
Resurs 01 Rocket 2.7 18:58:39 10° S 19:02:52 46° W 19:07:07 10° NNW
BREEZE-M DEB (TANK) 3.6 19:02:07 10° SW 19:06:01 67° SE 19:11:13 30° ENE
Cosmos 1782 3.2 19:04:40 10° NNW 19:08:11 54° W 19:09:32 32° SSW
CZ-4B R/B 4.3 19:12:00 28° NNE 19:12:00 28° NNE 19:14:59 10° N
Gbstr 26 Del rocket 4.2 19:05:15 10° SW 19:12:04 82° SE 19:15:03 41° ENE
CSL-04 Debris 4.0 19:12:12 53° SE 19:13:22 69° ENE 19:18:46 10° N
CZ-4B DEB 4.2 19:14:53 58° ENE 19:14:53 58° ENE 19:20:08 10° N
Atlas Centaur 2 4.3 19:12:22 10° WSW 19:17:49 21° SSW 19:20:55 16° SSE
CSL-04 Rocket 3.4 19:17:14 52° SSE 19:18:34 82° ENE 19:23:52 10° NNW
USA 267 4.5 19:17:49 20° NNE 19:21:11 32° NNW 19:26:49 10° WNW
ARIANE 6 FM1 Upper Stage 3.8 19:19:10 10° NW 19:21:31 33° NNW 19:21:31 33° NNW
Cosmos 2297 Rocket 4.5 19:25:42 10° W 19:29:53 21° NW 19:34:04 10° N
Cosmos 2058 3.9 19:26:27 10° SSW 19:29:54 42° W 19:29:54 42° W
SPOT 5 2.9 19:31:23 76° SW 19:31:33 77° WSW 19:36:39 10° NNW
Tsikada Rocket 3.8 19:27:45 10° S 19:33:55 89° WNW 19:40:08 10° N
Tiangong 0.8 19:31:43 10° W 19:32:34 17° WSW 19:32:34 17° WSW
Cosmos 1943 4.1 19:29:54 10° NNW 19:33:42 37° NNE 19:33:42 37° NNE
Cosmos 2219 3.3 19:40:00 10° SSW 19:45:35 77° W 19:45:35 77° W
BREEZE M DEB (TANK) 4.1 19:35:07 10° SW 19:49:17 56° SSE 19:49:17 56° SSE
Cosmos 2263 Rocket 3.3 19:50:21 10° SW 19:55:43 42° WNW 19:58:28 26° N
Terra 4.3 20:10:00 13° NNW 20:10:00 13° NNW 20:10:34 10° NNW
Cosmos 1634 Rocket 4.4 20:02:59 10° NNW 20:09:11 61° W 20:09:11 61° W
Cosmos 2344 4.3 20:14:45 10° WSW 20:22:04 45° NW 20:24:33 34° N
SL-16 R/B 4.1 20:27:57 10° NW 20:32:21 24° WSW 20:32:45 24° WSW
